• In Romania
  • List of Countries
  • For 7 days
  • Water Temperature
  • Satellite Maps
  • Weather Map
  • Weather Widgets
  • user-avatar
    Login

    Hourly Weather Lubango

    Today, 16 December, Saturday

    Time Temperature Precipitation Wind Pressure Humidity
    00:00 +15°C° 0 mm 0 mps 608 mmHg 63%
    01:00 +15°C° 0 mm 0 mps 608 mmHg 64%
    02:00 +15°C° 0 mm 0 mps 608 mmHg 63%
    03:00 +15°C° 0 mm 0 mps 607 mmHg 62%
    04:00 +16°C° 0 mm 1 mps 607 mmHg 61%
    05:00 +18°C° 0 mm 1 mps 608 mmHg 56%
    06:00 +20°C° 0 mm 1 mps 609 mmHg 52%
    07:00 +21°C° 0 mm 1 mps 610 mmHg 47%
    08:00 +23°C° 0 mm 1 mps 611 mmHg 40%
    09:00 +26°C° 0 mm 1 mps 612 mmHg 34%
    10:00 +29°C° 0 mm 2 mps 613 mmHg 28%
    11:00 +29°C° 0 mm 2 mps 612 mmHg 27%
    12:00 +30°C° 0 mm 2 mps 612 mmHg 26%
    13:00 +31°C° 0 mm 2 mps 612 mmHg 25%
    14:00 +29°C° 0 mm 2 mps 611 mmHg 30%
    15:00 +28°C° 0 mm 3 mps 610 mmHg 35%
    16:00 +26°C° 0 mm 3 mps 609 mmHg 40%
    17:00 +24°C° 0 mm 3 mps 609 mmHg 47%
    18:00 +21°C° 0 mm 2 mps 609 mmHg 53%
    19:00 +20°C° 0 mm 2 mps 609 mmHg 60%
    20:00 +19°C° 0 mm 2 mps 609 mmHg 63%
    21:00 +19°C° 0 mm 1 mps 609 mmHg 67%
    22:00 +18°C° 0 mm 1 mps 609 mmHg 70%
    23:00 +18°C° 0 mm 1 mps 609 mmHg 71%

    Tomorrow, 17 December, Sunday

    Time Temperature Precipitation Wind Pressure Humidity
    00:00 +16°C° 0 mm 0 mps 609 mmHg 72%
    01:00 +16°C° 0 mm 0 mps 608 mmHg 73%
    02:00 +16°C° 0.1 mm 0 mps 608 mmHg 74%
    03:00 +15°C° 0.1 mm 0 mps 608 mmHg 75%
    04:00 +15°C° 0.1 mm 0 mps 608 mmHg 75%
    05:00 +16°C° 0.1 mm 0 mps 608 mmHg 74%
    06:00 +16°C° 0.1 mm 0 mps 609 mmHg 72%
    07:00 +19°C° 0.1 mm 1 mps 609 mmHg 70%
    08:00 +20°C° 0.2 mm 1 mps 610 mmHg 65%
    09:00 +21°C° 0.2 mm 1 mps 610 mmHg 60%
    10:00 +22°C° 0.2 mm 1 mps 611 mmHg 55%
    11:00 +23°C° 0.1 mm 1 mps 611 mmHg 50%
    12:00 +25°C° 0.1 mm 2 mps 611 mmHg 45%
    13:00 +26°C° 0.1 mm 3 mps 611 mmHg 39%
    14:00 +25°C° 0.3 mm 3 mps 610 mmHg 44%
    15:00 +24°C° 0.3 mm 2 mps 610 mmHg 49%
    16:00 +23°C° 0.3 mm 2 mps 609 mmHg 53%
    17:00 +21°C° 0.3 mm 2 mps 609 mmHg 58%
    18:00 +19°C° 0.3 mm 2 mps 609 mmHg 63%
    19:00 +19°C° 0.3 mm 1 mps 609 mmHg 67%
    20:00 +18°C° 0.1 mm 1 mps 609 mmHg 70%
    21:00 +18°C° 0.1 mm 1 mps 609 mmHg 73%
    22:00 +16°C° 0.1 mm 1 mps 609 mmHg 76%
    23:00 +16°C° 0 mm 1 mps 609 mmHg 77%

    Day after tomorrow, 18 December, Monday

    Time Temperature Precipitation Wind Pressure Humidity
    00:00 +14°C° 0 mm 0 mps 609 mmHg 78%
    01:00 +14°C° 0 mm 0 mps 608 mmHg 79%
    02:00 +14°C° 0.1 mm 0 mps 608 mmHg 80%
    03:00 +14°C° 0.1 mm 0 mps 608 mmHg 80%
    04:00 +14°C° 0.1 mm 0 mps 607 mmHg 81%
    05:00 +14°C° 0.5 mm 0 mps 608 mmHg 80%
    06:00 +15°C° 0.5 mm 0 mps 608 mmHg 80%
    07:00 +15°C° 0.5 mm 0 mps 609 mmHg 79%
    08:00 +15°C° 0.4 mm 0 mps 609 mmHg 77%
    09:00 +16°C° 0.4 mm 0 mps 609 mmHg 75%
    10:00 +19°C° 0.4 mm 1 mps 609 mmHg 73%
    11:00 +19°C° 0.6 mm 1 mps 609 mmHg 71%
    12:00 +19°C° 0.6 mm 1 mps 609 mmHg 70%
    13:00 +20°C° 0.6 mm 1 mps 608 mmHg 68%
    14:00 +20°C° 0.7 mm 1 mps 608 mmHg 68%
    15:00 +19°C° 0.7 mm 2 mps 608 mmHg 67%
    16:00 +19°C° 0.7 mm 2 mps 607 mmHg 67%
    17:00 +19°C° 0.7 mm 1 mps 607 mmHg 70%
    18:00 +18°C° 0.7 mm 1 mps 607 mmHg 74%
    19:00 +16°C° 0.7 mm 1 mps 607 mmHg 77%
    20:00 +16°C° 0.7 mm 1 mps 608 mmHg 78%
    21:00 +15°C° 0.7 mm 1 mps 608 mmHg 80%
    22:00 +14°C° 0.7 mm 0 mps 608 mmHg 81%
    23:00 +14°C° 1.2 mm 0 mps 608 mmHg 81%

    19 December, Tuesday

    Time Temperature Precipitation Wind Pressure Humidity
    00:00 +14°C° 1.2 mm 0 mps 607 mmHg 82%
    01:00 +14°C° 1.2 mm 0 mps 607 mmHg 82%
    02:00 +13°C° 1.5 mm 0 mps 607 mmHg 83%
    03:00 +13°C° 1.5 mm 0 mps 607 mmHg 84%
    04:00 +13°C° 1.5 mm 0 mps 606 mmHg 84%
    05:00 +13°C° 0.9 mm 0 mps 607 mmHg 83%
    06:00 +14°C° 0.9 mm 0 mps 607 mmHg 81%
    07:00 +14°C° 0.9 mm 0 mps 607 mmHg 80%
    08:00 +16°C° 0.3 mm 1 mps 608 mmHg 75%
    09:00 +18°C° 0.3 mm 1 mps 609 mmHg 69%
    10:00 +19°C° 0.3 mm 1 mps 609 mmHg 63%
    11:00 +21°C° 0.1 mm 1 mps 609 mmHg 58%
    12:00 +21°C° 0.1 mm 2 mps 609 mmHg 52%
    13:00 +23°C° 0.1 mm 2 mps 609 mmHg 46%
    14:00 +22°C° 0 mm 3 mps 609 mmHg 47%
    15:00 +22°C° 0 mm 3 mps 608 mmHg 48%
    16:00 +22°C° 0 mm 4 mps 608 mmHg 49%
    17:00 +20°C° 0 mm 3 mps 608 mmHg 56%
    18:00 +19°C° 0 mm 2 mps 608 mmHg 63%
    19:00 +17°C° 0 mm 2 mps 608 mmHg 71%
    20:00 +16°C° 0 mm 1 mps 608 mmHg 74%
    21:00 +16°C° 0 mm 1 mps 608 mmHg 77%
    22:00 +15°C° 0 mm 1 mps 608 mmHg 80%
    23:00 +15°C° 0 mm 1 mps 608 mmHg 82%

    20 December, Wednesday

    Time Temperature Precipitation Wind Pressure Humidity
    00:00 +14°C° 0 mm 0 mps 607 mmHg 84%
    01:00 +13°C° 0 mm 0 mps 607 mmHg 86%
    02:00 +13°C° 0 mm 0 mps 607 mmHg 86%
    03:00 +13°C° 0 mm 0 mps 606 mmHg 87%
    04:00 +13°C° 0 mm 0 mps 606 mmHg 88%
    05:00 +13°C° 0 mm 0 mps 607 mmHg 83%
    06:00 +14°C° 0 mm 0 mps 607 mmHg 79%
    07:00 +16°C° 0 mm 1 mps 608 mmHg 75%
    08:00 +19°C° 0 mm 1 mps 609 mmHg 64%
    09:00 +20°C° 0 mm 2 mps 610 mmHg 53%
    10:00 +23°C° 0 mm 2 mps 611 mmHg 42%
    11:00 +23°C° 0 mm 2 mps 611 mmHg 41%
    12:00 +24°C° 0 mm 3 mps 610 mmHg 40%
    13:00 +25°C° 0 mm 3 mps 610 mmHg 40%
    14:00 +24°C° 0 mm 3 mps 610 mmHg 43%
    15:00 +22°C° 0 mm 3 mps 609 mmHg 47%
    16:00 +22°C° 0 mm 3 mps 609 mmHg 50%
    17:00 +20°C° 0 mm 3 mps 609 mmHg 56%
    18:00 +19°C° 0 mm 2 mps 609 mmHg 61%
    19:00 +18°C° 0 mm 2 mps 609 mmHg 67%
    20:00 +18°C° 0 mm 1 mps 609 mmHg 71%
    21:00 +16°C° 0 mm 1 mps 609 mmHg 75%
    22:00 +16°C° 0 mm 1 mps 609 mmHg 78%
    23:00 +15°C° 0 mm 1 mps 609 mmHg 81%

    21 December, Thursday

    Time Temperature Precipitation Wind Pressure Humidity
    00:00 +14°C° 0 mm 0 mps 608 mmHg 83%
    01:00 +14°C° 0 mm 0 mps 608 mmHg 85%
    02:00 +13°C° 0 mm 0 mps 608 mmHg 86%
    03:00 +13°C° 0 mm 0 mps 608 mmHg 87%
    04:00 +13°C° 0 mm 0 mps 607 mmHg 89%
    05:00 +13°C° 0 mm 0 mps 608 mmHg 85%
    06:00 +14°C° 0 mm 0 mps 608 mmHg 82%
    07:00 +15°C° 0 mm 0 mps 609 mmHg 79%
    08:00 +19°C° 0 mm 1 mps 610 mmHg 67%
    09:00 +21°C° 0 mm 1 mps 611 mmHg 55%
    10:00 +24°C° 0 mm 1 mps 612 mmHg 43%
    11:00 +25°C° 0 mm 2 mps 612 mmHg 38%
    12:00 +26°C° 0 mm 3 mps 612 mmHg 34%
    13:00 +27°C° 0 mm 3 mps 612 mmHg 30%
    14:00 +26°C° 0 mm 3 mps 611 mmHg 31%
    15:00 +26°C° 0 mm 4 mps 611 mmHg 32%
    16:00 +26°C° 0 mm 4 mps 610 mmHg 33%
    17:00 +24°C° 0 mm 3 mps 610 mmHg 41%
    18:00 +20°C° 0 mm 3 mps 609 mmHg 48%
    19:00 +18°C° 0 mm 2 mps 609 mmHg 56%
    20:00 +17°C° 0 mm 2 mps 609 mmHg 61%
    21:00 +16°C° 0 mm 1 mps 609 mmHg 66%
    22:00 +15°C° 0 mm 1 mps 609 mmHg 71%
    23:00 +14°C° 0 mm 1 mps 609 mmHg 73%
    Show more